Theta_e
318 318 328 328 327 330 337 345 343 343 341 340 344 344 343 343 347 339 339 339 336 325 329 332 333 335 337 338 337 336 333 327 328 329 330 331 331 329 328 327 325 325 324 324 323 323 323 324 333
318 318 328 329 324 327 332 339 343 342 336 341 342 343 343 345 344 344 337 340 329 323 326 330 332 334 336 338 339 337 335 328 327 328 330 330 329 328 328 327 325 324 325 326 326 325 325 324 323
317 317 325 319 321 326 330 340 338 337 333 333 344 344 343 342 342 344 340 339 331 323 325 327 330 332 335 337 339 339 337 329 327 328 328 328 327 327 328 328 325 325 326 331 333 332 330 325 324
320 323 324 317 318 321 324 337 337 337 332 333 344 350 343 338 339 339 339 338 332 323 325 327 330 330 331 334 336 337 337 330 327 328 328 327 326 327 329 329 325 326 331 336 327 327 331 330 326
325 323 316 318 318 321 323 336 336 336 335 333 344 348 344 343 344 345 340 335 335 324 326 326 327 328 330 331 331 332 332 328 327 327 327 326 326 327 329 330 325 326 337 326 317 318 324 331 331
323 322 316 316 318 321 322 337 336 334 334 336 352 352 351 350 349 344 337 337 339 325 326 327 329 327 328 328 327 328 328 326 326 327 327 326 326 326 329 331 325 331 328 315 314 313 314 316 323
319 316 317 317 319 320 322 333 330 331 333 329 347 350 351 350 351 343 342 341 341 327 326 327 328 329 329 326 325 325 325 325 326 326 326 326 325 325 328 332 327 334 319 316 315 314 314 315 314
323 316 317 317 319 319 322 326 327 328 329 330 336 349 346 344 345 350 342 343 343 342 327 327 327 327 327 325 324 324 324 325 325 325 326 326 325 324 326 332 331 333 319 317 316 320 329 331 318
322 316 315 317 319 319 324 321 326 326 328 329 338 338 335 339 340 349 345 343 343 343 340 327 327 328 327 324 324 324 324 325 325 326 326 326 325 325 340 336 339 334 327 327 319 327 328 331 333
320 316 318 319 320 320 322 323 325 325 325 327 340 339 337 340 349 350 346 344 342 343 343 332 326 327 327 325 324 325 325 324 324 325 325 326 325 331 340 339 340 337 336 335 330 328 328 327 331
320 317 319 321 323 324 323 323 324 324 323 325 338 341 336 337 343 352 347 343 342 342 345 336 327 327 326 325 324 324 325 325 325 325 325 326 329 337 342 339 343 342 340 337 331 333 330 328 324
318 320 321 322 323 323 322 323 322 323 324 324 332 342 350 351 351 352 349 345 343 342 343 343 328 329 327 325 324 324 324 325 325 325 325 326 332 340 343 341 341 343 343 338 335 333 331 327 324
318 318 322 323 323 323 323 322 322 323 323 324 324 342 347 350 352 352 352 348 343 346 345 342 340 333 328 329 335 335 332 325 325 325 325 326 332 342 344 342 342 344 344 341 335 333 331 329 328
320 320 320 321 322 322 321 321 323 323 323 322 323 323 331 337 334 335 348 349 346 338 341 343 342 341 338 338 340 341 342 334 340 341 339 340 331 343 342 339 341 343 345 344 337 334 334 331 328
320 316 317 319 321 320 322 319 319 322 322 322 322 323 324 325 333 345 348 348 347 342 341 342 341 341 340 339 346 343 344 342 341 342 342 342 341 334 339 336 340 340 345 344 343 342 340 330 326
316 316 316 317 319 320 320 317 320 322 323 323 323 323 324 330 342 346 346 346 348 345 339 336 343 342 341 340 348 347 346 343 344 343 344 343 343 341 335 338 341 342 345 346 345 344 340 332 328
316 315 316 319 320 319 318 317 319 322 323 323 323 324 324 334 334 334 336 343 340 345 349 341 346 342 342 341 341 345 344 346 345 344 344 344 343 342 341 336 340 343 344 347 347 343 340 335 329
315 316 316 319 321 320 318 318 320 323 323 322 324 324 329 336 339 339 336 337 336 337 349 351 347 346 346 346 346 343 345 344 346 346 347 346 344 344 343 340 333 342 343 345 347 346 342 338 331
317 317 318 320 322 321 318 320 320 322 323 324 324 324 334 335 336 339 343 343 334 332 349 352 353 352 352 352 350 351 346 347 347 348 347 347 346 346 346 344 335 337 341 343 344 347 345 341 334
318 318 319 320 321 322 321 321 321 321 322 323 324 324 334 335 337 340 342 342 341 335 345 355 353 352 353 353 354 353 353 351 348 348 348 349 348 347 346 345 339 336 340 340 345 346 347 345 339
321 320 320 321 321 321 320 320 321 322 323 323 327 325 334 335 336 341 343 343 346 346 345 349 352 354 353 354 356 356 354 353 353 352 351 349 348 348 347 345 340 338 338 339 345 344 345 341 337
320 322 322 321 320 319 321 319 319 320 319 319 329 332 334 337 342 343 344 345 346 347 350 346 344 350 354 352 354 354 354 353 353 354 354 352 350 349 347 345 344 338 336 334 336 339 339 339 339
322 321 320 321 320 320 320 318 318 320 321 319 326 330 335 341 341 340 341 341 343 343 347 350 347 346 351 352 350 351 352 353 352 353 352 353 350 348 346 344 343 340 336 339 339 338 342 342 340
323 323 322 320 318 319 320 319 319 319 322 323 326 334 338 338 337 338 338 338 336 337 336 345 347 348 349 349 350 350 352 352 354 352 351 351 350 350 348 347 342 338 338 338 340 339 340 345 341
322 322 323 322 319 320 320 321 324 328 325 325 328 334 335 335 336 336 335 335 334 334 333 333 341 342 342 342 344 343 344 346 347 350 349 350 349 351 350 348 347 347 345 338 337 342 340 343 342
322 319 322 323 323 324 323 328 336 328 323 325 324 331 329 328 332 333 331 329 327 331 331 329 328 327 335 337 338 339 343 343 344 345 346 348 347 348 350 350 348 346 347 342 334 340 343 343 344
323 322 320 320 323 324 323 326 333 328 326 323 322 320 324 325 326 324 328 325 325 330 331 330 327 325 325 322 323 329 333 337 337 341 343 342 344 346 347 348 349 348 347 346 341 336 339 342 343
321 320 323 322 325 325 324 332 333 332 326 325 322 321 319 320 322 323 321 323 322 322 323 322 323 326 326 326 325 325 321 316 317 324 334 339 343 344 344 343 346 349 347 346 343 338 336 336 341
325 325 323 321 326 329 327 332 330 329 326 325 323 321 318 318 318 317 317 317 317 317 317 319 319 319 320 321 321 325 324 322 319 317 317 326 332 338 342 342 343 346 346 346 344 344 345 343 342
324 323 324 325 325 327 326 330 327 326 324 322 321 322 321 319 317 317 316 315 316 316 316 316 316 317 318 319 319 320 320 326 325 321 317 319 323 329 335 341 339 342 343 344 342 341 340 339 338
Wind_Speed
16 13 13 11 3 2 3 6 17 13 5 5 15 14 13 9 3 5 25 25 23 29 30 29 27 24 24 20 19 17 15 14 13 11 10 9 9 10 10 10 9 9 8 7 6 5 4 4 5
13 12 8 6 2 2 5 6 7 16 4 16 27 32 9 4 8 7 18 21 18 28 30 29 27 25 23 21 19 17 16 14 12 11 9 8 8 8 8 9 8 8 8 8 7 6 4 3 4
9 7 4 3 3 9 5 6 9 11 2 8 8 16 9 0 5 7 18 23 20 28 29 28 27 24 23 22 19 18 16 14 12 11 9 7 7 7 8 8 8 8 7 8 7 6 5 4 3
3 3 6 1 11 19 9 9 5 2 6 7 30 13 12 6 29 16 27 22 21 29 30 28 27 25 23 21 20 18 16 14 12 10 8 7 6 6 7 8 8 7 7 6 6 5 5 5 5
6 5 2 4 11 15 15 12 9 3 1 9 23 15 24 21 20 21 28 22 21 30 30 29 26 24 22 21 19 18 16 14 11 9 8 6 5 5 6 8 8 7 7 7 6 4 4 3 3
5 3 3 6 10 11 11 19 16 5 3 14 27 15 12 3 10 31 27 25 20 31 32 31 28 24 22 20 19 18 16 14 11 9 8 6 4 4 5 7 7 8 8 8 7 6 5 3 2
8 1 7 10 13 12 9 19 11 9 7 7 18 7 13 17 15 26 21 18 19 29 33 32 30 26 23 21 19 18 16 14 12 10 8 6 4 3 4 6 7 8 9 9 9 9 9 8 4
19 3 9 8 9 13 10 11 11 10 7 13 10 7 8 15 16 22 26 28 21 20 31 34 31 29 26 24 21 19 16 15 13 10 8 6 4 3 4 6 7 9 10 10 12 13 15 15 10
19 2 6 10 9 10 17 10 9 3 5 10 9 12 8 14 15 20 30 31 28 24 24 32 32 30 28 26 24 21 18 16 14 13 11 8 5 4 4 5 9 10 11 12 14 14 13 12 14
5 2 9 13 12 8 15 17 15 7 5 3 15 14 17 25 22 22 34 32 32 28 25 33 34 32 29 27 26 25 23 20 17 14 11 8 6 7 5 5 11 12 12 12 12 10 9 9 6
18 7 9 24 28 22 12 13 17 12 4 10 11 21 22 21 18 21 31 34 33 25 21 26 34 31 30 29 26 25 23 20 18 15 13 10 8 5 4 4 6 7 7 10 8 4 5 8 7
7 22 23 30 29 26 6 9 14 13 10 14 8 17 22 19 17 20 30 33 35 29 22 13 28 29 28 26 25 22 21 19 18 16 14 13 14 9 8 4 1 2 3 5 6 5 6 11 2
7 13 27 25 26 27 12 8 8 16 18 13 7 21 24 25 24 22 23 26 22 27 16 14 14 21 24 22 18 15 14 19 16 16 15 14 15 12 14 13 8 4 3 1 6 5 2 6 3
20 21 18 25 26 18 6 8 12 13 18 18 18 13 16 22 20 19 23 18 36 28 15 24 24 21 21 21 19 15 10 11 11 9 8 7 12 17 16 13 10 7 2 5 9 8 7 6 2
18 10 13 17 14 7 18 6 7 17 19 23 22 18 13 11 5 15 22 23 19 19 33 29 34 29 24 25 17 19 10 8 12 11 9 10 10 16 18 15 16 17 10 10 10 10 9 2 6
9 8 5 9 14 19 12 9 8 21 23 24 21 22 15 3 14 18 26 39 29 34 22 21 29 34 26 33 17 19 13 14 15 14 15 17 17 14 16 19 16 12 14 13 13 11 8 3 3
5 8 12 14 15 11 13 9 9 23 19 27 19 12 11 22 19 16 9 12 16 12 19 30 33 36 29 27 30 26 25 21 21 21 23 23 22 19 16 19 19 17 15 12 12 9 7 9 9
8 7 10 11 13 9 12 8 8 20 17 21 15 10 9 26 22 21 16 13 14 19 14 22 23 26 26 22 22 30 27 28 23 23 22 22 22 20 18 18 22 22 17 19 13 13 12 10 10
12 17 17 16 17 12 10 8 7 14 9 12 13 10 26 26 21 21 19 16 9 13 17 14 20 18 19 21 23 21 28 26 27 25 25 23 23 22 21 18 20 26 25 25 19 18 17 14 11
12 14 15 15 15 5 6 6 7 6 5 15 20 19 32 29 25 22 18 10 10 7 9 15 14 19 19 16 18 18 15 19 27 27 27 26 26 25 24 20 19 23 22 22 23 20 21 17 15
12 9 9 9 12 7 7 5 6 4 15 18 10 19 33 28 25 23 21 19 14 12 10 11 11 11 16 15 11 13 14 15 19 20 25 28 29 27 30 27 20 24 26 26 24 26 23 19 16
7 9 13 10 6 9 2 6 6 6 11 8 20 37 32 30 32 29 25 19 15 9 7 5 9 14 12 14 18 18 20 19 17 20 21 28 26 29 33 32 27 22 26 27 27 25 23 22 21
17 10 11 7 6 3 12 2 7 6 9 10 15 27 32 39 34 30 26 23 17 11 2 4 5 11 10 12 9 19 16 18 18 21 24 22 24 25 24 30 33 30 30 27 28 26 24 23 25
18 14 9 4 4 7 5 6 7 9 6 5 14 32 38 36 33 29 25 25 25 13 8 6 5 9 12 9 10 12 16 14 17 18 16 14 21 20 22 20 23 29 28 31 31 32 28 26 25
19 3 5 7 3 6 7 4 6 16 24 3 17 28 35 32 32 32 29 23 22 20 13 9 6 6 5 4 7 10 15 16 19 17 21 11 14 19 20 22 21 23 29 31 34 31 30 28 27
9 4 4 6 6 3 6 2 2 10 29 40 50 25 33 32 33 26 24 23 20 15 14 17 18 15 7 1 1 5 1 10 15 15 21 22 17 18 16 21 24 22 20 26 34 34 33 31 29
6 5 9 9 4 3 4 4 1 15 22 31 37 43 32 22 20 23 27 23 22 18 15 15 17 18 16 16 16 8 8 11 12 11 17 23 28 27 24 21 20 22 20 19 25 37 37 34 33
1 1 4 6 0 4 3 1 6 1 8 13 25 30 35 25 18 10 25 25 25 18 11 12 19 16 16 16 15 15 13 13 11 11 13 13 20 23 23 24 21 21 23 23 20 24 29 33 35
6 4 3 4 3 2 3 1 5 5 8 7 10 13 25 20 17 20 24 23 21 18 17 8 12 13 9 8 12 14 16 14 13 12 12 13 15 17 20 20 20 22 23 23 22 26 24 29 32
9 3 3 2 4 5 3 0 4 9 12 17 8 7 11 7 8 15 22 16 14 13 12 11 11 12 9 10 8 8 11 16 16 14 13 12 13 14 13 18 21 21 20 21 21 22 23 27 29
Wind_Direction
299 306 315 329 37 73 278 179 247 313 68 30 99 104 118 128 139 104 153 171 165 161 158 159 159 156 148 144 139 134 129 123 117 118 113 105 93 84 77 74 72 73 73 72 71 80 95 113 119
295 310 310 243 144 288 273 243 89 289 53 112 101 117 81 74 19 89 152 161 160 162 161 162 161 159 154 150 147 143 139 135 128 125 122 107 91 77 69 62 61 64 66 65 60 57 64 82 112
297 293 299 161 219 240 249 246 222 195 109 351 85 91 91 301 60 321 194 164 166 164 163 163 163 161 160 155 153 150 147 146 141 135 127 110 91 76 63 54 54 56 59 59 51 53 55 67 97
305 293 248 138 254 268 231 206 200 17 112 36 132 106 114 93 189 158 170 170 176 167 165 165 166 165 163 161 158 156 155 155 149 143 135 119 97 72 59 52 51 54 53 45 43 56 66 74 91
302 271 253 265 256 261 267 215 140 151 185 102 94 133 152 151 170 171 183 185 184 172 168 167 169 168 167 165 162 160 160 160 158 153 144 132 109 82 59 46 47 50 40 28 33 58 78 83 93
277 255 344 267 269 275 283 163 168 140 31 82 105 97 118 87 162 177 185 185 193 179 173 170 171 171 169 168 166 164 165 165 166 165 159 148 122 89 65 50 46 44 34 38 45 52 61 75 117
227 48 252 271 286 300 294 166 158 155 115 72 127 95 132 150 109 156 178 194 186 181 177 176 172 172 172 171 170 169 170 170 173 176 170 155 132 92 61 47 49 41 40 46 54 57 55 54 55
247 126 293 281 284 286 320 72 85 81 85 116 121 152 175 157 158 151 171 193 185 183 186 181 177 175 175 174 174 175 176 178 181 184 182 171 154 107 53 44 47 38 44 47 62 70 81 57 52
266 320 263 271 281 295 342 12 63 119 87 86 117 147 154 199 183 156 165 189 188 189 192 192 183 181 180 179 177 179 182 185 191 194 193 189 172 143 61 88 28 33 48 62 83 80 73 58 59
233 205 240 252 270 319 338 5 346 24 34 55 137 148 135 153 171 169 170 183 191 195 202 199 190 185 185 185 184 184 188 191 196 199 201 197 193 189 111 47 60 57 59 68 80 80 67 57 64
254 233 258 275 283 297 324 343 330 336 12 330 175 157 148 168 173 180 181 187 201 203 202 199 194 190 189 191 190 192 196 198 201 204 206 200 192 180 116 13 96 67 84 68 72 76 64 18 354
254 262 247 264 277 298 316 331 321 331 316 324 88 176 162 171 176 195 194 191 184 198 207 215 204 195 194 195 198 202 205 207 211 214 213 207 190 188 190 256 244 252 123 85 92 70 23 13 62
255 254 258 261 275 276 297 294 281 305 307 316 298 175 186 188 199 203 203 191 164 161 188 220 214 202 202 202 190 198 216 225 225 228 228 213 187 183 210 238 252 245 271 185 134 122 72 343 65
286 304 299 298 284 287 262 258 276 271 285 289 282 279 205 193 209 214 212 185 181 192 192 223 225 210 204 200 210 209 217 217 208 218 216 224 204 185 201 202 225 222 232 190 153 188 262 313 195
306 305 297 291 280 262 283 276 246 258 253 263 253 262 250 271 270 185 124 157 170 164 173 218 222 205 197 198 207 211 203 219 218 228 234 239 242 211 206 208 205 200 196 209 223 257 277 290 119
331 309 289 282 265 269 234 254 228 264 244 246 255 228 236 187 136 149 119 129 151 172 179 214 200 209 195 193 186 194 200 198 214 220 228 237 248 239 226 211 206 191 203 228 235 260 276 179 192
284 265 276 278 245 243 203 237 242 255 271 226 231 185 222 112 111 109 148 174 148 118 159 179 208 210 201 195 205 199 196 196 211 219 235 243 242 246 249 223 208 209 227 227 242 243 230 214 208
263 252 254 251 274 248 232 206 234 252 274 231 183 175 130 112 101 98 95 107 151 197 166 172 201 214 212 218 215 222 221 212 216 229 236 244 242 245 246 242 216 209 220 224 221 235 239 228 228
253 273 282 289 289 318 172 179 236 255 254 142 157 191 132 114 113 109 96 93 131 162 182 199 200 208 208 218 219 219 223 221 220 222 231 240 246 250 247 251 228 212 220 224 228 231 233 241 221
259 258 273 283 285 306 298 233 218 273 277 201 180 186 135 128 120 116 114 111 77 113 144 174 198 221 235 221 228 229 240 241 230 230 233 237 239 242 248 254 237 216 223 226 230 234 235 236 234
261 271 273 264 307 317 317 293 220 237 290 279 141 182 140 133 129 123 110 101 98 90 101 158 187 199 223 234 216 226 243 233 237 236 238 236 241 244 252 249 237 227 227 228 230 237 241 237 221
245 257 273 273 285 285 52 285 276 219 245 264 135 123 127 127 115 108 107 108 102 99 104 135 193 199 201 220 227 228 232 235 234 239 254 248 250 256 252 252 245 244 232 229 231 237 244 238 219
275 234 259 278 260 267 277 266 271 268 243 232 158 138 123 121 121 109 102 91 100 114 138 106 153 179 185 211 219 229 236 237 242 248 250 272 263 250 239 245 250 242 229 230 234 237 236 236 226
282 275 257 273 241 263 239 212 275 277 277 178 150 127 122 119 115 115 113 101 84 82 71 132 155 147 176 202 206 224 238 238 233 233 253 279 266 264 275 271 244 238 232 229 233 241 240 237 232
347 262 282 253 279 225 229 252 82 10 1 229 135 121 120 120 120 115 108 102 96 79 68 69 127 124 130 175 210 229 239 246 258 251 247 253 272 262 259 270 271 264 254 239 233 236 244 236 236
322 43 269 219 219 269 354 323 59 44 26 23 33 60 104 103 103 111 107 99 88 98 77 69 65 70 90 99 243 259 285 256 255 267 256 259 252 251 271 261 264 265 271 244 232 234 241 245 241
280 303 321 296 138 66 217 227 64 26 35 29 25 30 25 94 99 92 111 112 107 102 92 72 59 55 53 60 58 33 347 329 321 295 262 261 262 258 258 266 266 259 259 264 245 234 238 243 247
263 270 8 357 110 221 221 126 228 352 59 33 34 25 22 28 68 108 86 110 96 89 86 86 61 62 62 41 27 23 22 28 18 347 313 296 271 269 259 256 264 262 248 257 253 240 242 245 247
344 15 15 183 115 300 312 133 308 336 113 79 74 37 50 358 55 24 54 66 72 69 53 53 43 28 26 43 27 16 6 354 350 357 354 340 315 289 272 262 245 247 248 246 246 248 244 253 250
112 18 68 319 315 234 216 202 114 129 148 151 171 214 203 274 41 6 39 54 60 56 37 22 19 12 18 355 326 336 357 346 339 333 329 331 331 329 297 264 255 250 249 256 256 254 257 249 251